Content
SEND FEEDBACK

Daily
Averages
Monthly
Summary
United States of America

DOTHAN, ALABAMA


Home > North America > United States > Alabama
Elevation: 374 feet     Latitude: 31 19N     Longitude: 085 27W

WEATHER
 
SELECT A DAY
Number of Records: 198,167;   Date Range: 1/1/95 - 12/26/14
 
SHARE

PRINT THIS DATA

[ ← Previous Day ]
WEATHER ALMANAC - JANUARY 23, 2013
[ Next Day → ]
[ °C ]   °F
Weather ElementAverageHighLow
Temperature47.4 °F60.1 °F (2:53 pm)33.1 °F (4:53 am)
Dewpoint34.8 °F45 °F (10:53 pm)28 °F (1:53 am)
Humidity64.4 %86 % (11:53 pm)37 % (10:53 am)
Barometer30.38 in30.46 in (8:53 am)30.32 in (6:53 pm)
Wind Speed4 mph8.1 mph (1:53 pm)
Weather ElementAverage
Visibility10 mi
Wind DirectionSSE (142.7 °)

Weather ElementTotal
Precipitation---
Heating Degree Days18.4 (Base 65)
Averaged from 22 records on January 23, 2013
WEATHER CONDITIONS BREAKOUT
WIND DIRECTION BREAKOUT
WEATHER BY HOUR - JANUARY 23, 2013
[ °C ]   °F
Local TimeTemperatureDewpointHumidityBarometerVisibilityWind DirectionWind SpeedGust SpeedPrecipitationEventsConditions
1:53 AM35.1 °F28.0 °F76 %30.36 in10.0 miCalmClear
2:53 AM35.1 °F30.0 °F82 %30.38 in10.0 miCalmClear
3:53 AM34.0 °F30.0 °F85 %30.38 in10.0 miNNW (340°)3.5 mphClear
4:53 AM33.1 °F28.9 °F85 %30.40 in10.0 miNNE (20°)4.6 mphClear
5:53 AM34.0 °F28.9 °F82 %30.41 in10.0 miCalmMostly Cloudy
6:53 AM37.0 °F28.9 °F73 %30.43 in10.0 miCalmOvercast
7:53 AM39.0 °F30.9 °F73 %30.44 in10.0 miCalmOvercast
8:53 AM44.1 °F28.0 °F53 %30.46 in10.0 miEast (90°)4.6 mphOvercast
9:53 AM50.0 °F28.0 °F43 %30.46 in10.0 miSE (140°)5.8 mphClear
10:53 AM54.0 °F28.0 °F37 %30.44 in10.0 miCalmClear
11:53 AM57.0 °F33.1 °F40 %30.40 in10.0 miCalmPartly Cloudy
12:53 PM59.0 °F35.1 °F41 %30.38 in10.0 miWSW (250°)4.6 mphOvercast
1:53 PM59.0 °F36.0 °F42 %30.35 in10.0 miWest (280°)8.1 mphOvercast
2:53 PM60.1 °F37.0 °F42 %30.34 in10.0 miSW (230°)6.9 mphOvercast
4:53 PM57.9 °F39.0 °F49 %30.34 in10.0 miWSW (250°)4.6 mphOvercast
5:53 PM52.0 °F39.9 °F63 %30.33 in10.0 miSSW (210°)5.8 mphMostly Cloudy
6:53 PM52.0 °F39.9 °F63 %30.32 in10.0 miSSW (210°)5.8 mphClear
7:53 PM50.0 °F39.9 °F68 %30.33 in10.0 miSSW (210°)6.9 mphClear
8:53 PM51.1 °F42.1 °F71 %30.34 in10.0 miSW (220°)6.9 mphMostly Cloudy
9:53 PM50.0 °F44.1 °F80 %30.33 in10.0 miSW (220°)6.9 mphPartly Cloudy
10:53 PM50.0 °F45.0 °F83 %30.32 in10.0 miSW (230°)6.9 mphClear
11:53 PM48.9 °F45.0 °F86 %30.32 in10.0 miWSW (240°)5.8 mphClear
Hourly data recorded from KDHN, located miles away from Dothan, Alabama







STORIES FROM OUR PARTNERS